星链-2700 (STARLINK-2700 )

导读

STARLINK-2700是美国SpaceX公司星链(Starlink)星座的一员,于2021年5月9日发射升空,属于星链一代v1.5版本卫星,运行在约550公里高度的近地轨道。它采用Ku和Ka波段工作,配备星间激光通信链路,可实现高速卫星互联网传输,为全球尤其是地面网络覆盖不足的区域提供低延迟宽带接入服务,助力实现全球无缝网络覆盖的星链建设目标。

基本信息
目录编号:
48431
目录名称:
STARLINK-2700
国际标识:
2021-040D
轨道中心:
EARTH
卫星名称:
星链-2700
卫星全名:
星链-2700 (STARLINK-2700 )
卫星状态:
在轨 (已飞行1866 天)
发射日期:
2021-05-09 UTC
国别 :
美国 (US)
星等 :
--
轨道信息
数据来源 国际轨道数据
星历时间: 2026-06-18T09:03:33+0800
13小时前
查看轨道信息
半长轴: 6848.852km
偏心率: 0.0001445
轨道倾角: 53.161°
近地点辐角 71.868°
升交点赤经 45.944°
平近点角 288.248°
近地点: 469.725km
远地点: 471.705km
周期: 94.013分钟
每日圈数: 15.317086
详细信息
固有亮度:
5
最大亮度:
2.5
卫星平台:
Starlink V1.0
覆盖范围:
全球
运营商:
太空探索技术公司
运营商所在国:
美国
制造商(研发单位):
太空探索技术公司
制造商所在国:
美国
使用方式:
暂无
卫星简介
星链(Starlink)计划是由太空探索技术公司(SpaceX)提出的一个巨型低轨卫星互联网星座项目,计划在2019年至2024年间在太空搭建由约1.2万颗卫星组成的“星链”网络,其中1584颗将部署在地球上空550千米处的近地轨道,并从2020年开始工作。该卫星仍在工作。
2D轨道图
3D轨道图
轨道高度分析图
轨道倾角分析图
轨道综合分析图
查看轨道综合分析图